Full Index
Showing up to 100 newest rows before ID 5733415.
| ID | Domain | Status | Last visit | URL |
|---|---|---|---|---|
| 5733410 | www.accertify.com | 200 | 2026-08-31 15:40:59 | https://www.accertify.com/ |
| 5733401 | www.mot.be | 200 | 2026-08-31 15:38:43 | https://www.mot.be/ |
| 5733400 | www.toerismegrimbergen.be | 200 | 2026-08-31 15:38:42 | https://www.toerismegrimbergen.be/ |
| 5733399 | degordel.be | 200 | 2026-08-31 15:38:42 | https://degordel.be/ |
| 5733398 | www.ccstrombeek.be | 200 | 2026-08-31 15:38:41 | https://www.ccstrombeek.be/ |
| 5733397 | afspraak.docleas.eu | 200 | 2026-08-31 15:38:39 | https://afspraak.docleas.eu/ |
| 5733396 | grimbergen.bibliotheek.be | 403 | 2026-08-31 15:38:38 | https://grimbergen.bibliotheek.be/ |
| 5733383 | www.crowdfunding.com | 200 | 2026-08-31 15:37:56 | https://www.crowdfunding.com/ |
| 5733378 | www.horaire.com | 200 | 2026-08-31 15:37:45 | https://www.horaire.com/ |
| 5733366 | www.belgoal.com | 200 | 2026-08-31 15:37:37 | https://www.belgoal.com/ |
| 5733358 | imods.com | 200 | 2026-08-31 15:36:24 | https://imods.com/ |
| 5733356 | www.billing.blueangelhost.com | 200 | 2026-08-31 15:36:17 | https://www.billing.blueangelhost.com/ |
| 5733353 | www.blueangel.host | 200 | 2026-08-31 15:36:06 | https://www.blueangel.host/ |
| 5733350 | turkey1win.website | 200 | 2026-08-31 15:35:50 | https://turkey1win.website/ |
| 5733347 | physics.fisikastudycenter.com | 200 | 2026-08-31 15:35:44 | http://physics.fisikastudycenter.com/ |
| 5733331 | ultramexico.com | 200 | 2026-08-31 15:35:16 | https://ultramexico.com/ |
| 5733330 | ticketclub.es | 200 | 2026-08-31 15:35:14 | https://ticketclub.es/ |
| 5733329 | tickets.gluecksgefuehle-festival.de | 200 | 2026-08-31 15:35:13 | https://tickets.gluecksgefuehle-festival.de/ |
| 5733320 | nishiyoshi.com | 403 | 2026-08-31 15:34:40 | https://nishiyoshi.com/ |
| 5733312 | openmarket.ru | 200 | 2026-08-31 15:34:11 | http://openmarket.ru/ |
| 5733293 | www.gaul.de | 200 | 2026-08-31 15:33:37 | https://www.gaul.de/ |
| 5733291 | www.galerie.de | 200 | 2026-08-31 15:33:36 | http://www.galerie.de/ |
| 5733288 | snuggiestore.com | 200 | 2026-08-31 15:33:20 | https://snuggiestore.com/ |
| 5733280 | gymartistica.forospanish.com | 200 | 2026-08-31 15:32:54 | https://gymartistica.forospanish.com/ |
| 5733279 | lamejorcocina.forospanish.com | 200 | 2026-08-31 15:32:53 | https://lamejorcocina.forospanish.com/ |
| 5733265 | www.kalelargainfo.hr | 200 | 2026-08-31 15:32:40 | https://www.kalelargainfo.hr/ |
| 5733263 | visitbibinje.com | 200 | 2026-08-31 15:32:39 | https://visitbibinje.com/ |
| 5733254 | druid-house-guest-house-christchurch.dorset-uk.info | 200 | 2026-08-31 15:32:31 | https://druid-house-guest-house-christchurch.dorset-uk.info/ |
| 5733253 | birch-house-bb.dorset-uk.info | 200 | 2026-08-31 15:32:28 | https://birch-house-bb.dorset-uk.info/ |
| 5733252 | balincourt-guest-house.dorset-uk.info | 200 | 2026-08-31 15:32:28 | https://balincourt-guest-house.dorset-uk.info/ |
| 5733243 | kafapresse-aduhoki77.pages.dev | 200 | 2026-08-31 15:32:06 | https://kafapresse-aduhoki77.pages.dev/ |
| 5733236 | farabtravel.taplink.ws | 200 | 2026-08-31 15:31:53 | https://farabtravel.taplink.ws/ |
| 5733226 | barrelandashes.com | 200 | 2026-08-31 15:30:45 | http://barrelandashes.com/ |
| 5733204 | laptopdriversbd.blogspot.com | 200 | 2026-08-31 15:30:02 | http://laptopdriversbd.blogspot.com/ |
| 5733193 | www.creativeclub.dk | 200 | 2026-08-31 15:29:47 | https://www.creativeclub.dk/ |
| 5733192 | creativeclub.dk | 200 | 2026-08-31 15:29:47 | https://creativeclub.dk/ |
| 5733191 | jobsoninteractive.com | 200 | 2026-08-31 15:29:43 | https://jobsoninteractive.com/ |
| 5733190 | www.icpme.us | 521 | 2026-08-31 15:29:39 | http://www.icpme.us/ |
| 5733189 | www.framesdata.com | 200 | 2026-08-31 15:29:38 | https://www.framesdata.com/ |
| 5733188 | www.alertmarketing.com | 200 | 2026-08-31 15:29:36 | https://www.alertmarketing.com/ |
| 5733187 | www.2020mag.com | 200 | 2026-08-31 15:29:35 | http://www.2020mag.com/ |
| 5733180 | collabcrm.com | 200 | 2026-08-31 15:28:12 | https://collabcrm.com/ |
| 5733179 | career.collabcrm.com | 200 | 2026-08-31 15:28:11 | https://career.collabcrm.com/ |
| 5733178 | www.seeff.co.zw | 200 | 2026-08-31 15:28:05 | https://www.seeff.co.zw/ |
| 5733177 | www.seeff.co.zm | 200 | 2026-08-31 15:28:01 | https://www.seeff.co.zm/ |
| 5733176 | www.seeff.co.tz | 200 | 2026-08-31 15:27:58 | https://www.seeff.co.tz/ |
| 5733175 | seeff.co.mz | 200 | 2026-08-31 15:27:53 | https://seeff.co.mz/ |
| 5733163 | collektklove.com | 200 | 2026-08-31 15:27:36 | https://collektklove.com/ |
| 5733162 | www.orbital-outdoors.com | 200 | 2026-08-31 15:27:34 | https://www.orbital-outdoors.com/ |
| 5733143 | getcomputeractive.co.uk | 200 | 2026-08-31 15:25:35 | https://getcomputeractive.co.uk/ |
| 5733142 | www.uibi.it | 200 | 2026-08-31 15:24:45 | https://www.uibi.it/ |
| 5733104 | ecdl.org | 200 | 2026-08-31 15:23:01 | http://ecdl.org/ |
| 5733103 | eurai.org | 200 | 2026-08-31 15:23:00 | http://eurai.org/ |
| 5733102 | ifip.org | 200 | 2026-08-31 15:22:59 | http://ifip.org/ |
| 5733101 | lmt.lt | 403 | 2026-08-31 15:22:58 | http://lmt.lt/ |
| 5733100 | aris-project.eu | 200 | 2026-08-31 15:22:58 | http://aris-project.eu/ |
| 5733098 | novacidade-zdbytpey.manus.space | 404 | 2026-08-31 15:22:05 | https://novacidade-zdbytpey.manus.space/ |
| 5733097 | www.weclix.com.br | 200 | 2026-08-31 15:22:04 | https://www.weclix.com.br/ |
| 5733096 | www.morroagudo.sp.gov.br | 200 | 2026-08-31 15:22:02 | https://www.morroagudo.sp.gov.br/ |
| 5733090 | www.weistock.com | 403 | 2026-08-31 15:21:26 | http://www.weistock.com/ |
| 5733088 | www.huidian.net | 200 | 2026-08-31 15:21:10 | https://www.huidian.net/ |
| 5733086 | www.sitemasters.be | 200 | 2026-08-31 15:20:58 | http://www.sitemasters.be/ |
| 5733084 | fangorn.thijma.nl | 403 | 2026-08-31 15:20:55 | http://fangorn.thijma.nl/ |
| 5733082 | www.webhostingtop10.be | 200 | 2026-08-31 15:20:54 | https://www.webhostingtop10.be/ |
| 5733067 | www.snuggle-dreamer.rocks | 200 | 2026-08-31 15:17:02 | https://www.snuggle-dreamer.rocks/ |
| 5733063 | anmexpo.com.cn | 200 | 2026-08-31 15:16:41 | http://anmexpo.com.cn/ |
| 5733062 | www.shanghaiahte.com | 200 | 2026-08-31 15:16:38 | https://www.shanghaiahte.com/ |
| 5733061 | www.cseac.org.cn | 200 | 2026-08-31 15:16:36 | https://www.cseac.org.cn/ |
| 5733054 | www.chinahrgy.com | 403 | 2026-08-31 15:15:55 | http://www.chinahrgy.com/ |
| 5733052 | www.hergom.net | 200 | 2026-08-31 15:15:53 | http://www.hergom.net/ |
| 5733050 | www.moloney.group | 200 | 2026-08-31 15:15:47 | http://www.moloney.group/ |
| 5733049 | moluonijj.world.tmall.com | 200 | 2026-08-31 15:15:42 | https://moluonijj.world.tmall.com/ |
| 5733038 | paycrypto.one | 200 | 2026-08-31 15:15:17 | https://paycrypto.one/ |
| 5733037 | mobileproxy.rent | 200 | 2026-08-31 15:15:16 | https://mobileproxy.rent/ |
| 5733035 | www.rosemcgrory.co.uk | 200 | 2026-08-31 15:15:14 | http://www.rosemcgrory.co.uk/ |
| 5733033 | www.rosemcgrory.co.uk | 200 | 2026-08-31 15:15:06 | https://www.rosemcgrory.co.uk/ |
| 5733020 | www.cosl.lu | 200 | 2026-08-31 15:14:31 | http://www.cosl.lu/ |
| 5733018 | www.uci.ch | 200 | 2026-08-31 15:14:28 | http://www.uci.ch/ |
| 5733014 | kars-gen.net | 404 | 2026-08-31 15:14:26 | http://kars-gen.net/ |
| 5733010 | coloradosprings.us20.list-manage.com | 200 | 2026-08-31 15:14:24 | https://coloradosprings.us20.list-manage.com/ |
| 5733009 | hdr.jotform.com | 200 | 2026-08-31 15:14:24 | https://hdr.jotform.com/ |
| 5733007 | www.beachvilla.co.za | 200 | 2026-08-31 15:14:20 | https://www.beachvilla.co.za/ |
| 5733003 | migueljara.tv | 200 | 2026-08-31 15:14:09 | https://migueljara.tv/ |
| 5733000 | www.qscourses.com | 200 | 2026-08-31 15:13:59 | https://www.qscourses.com/ |
| 5732998 | www.shipsim.com | 200 | 2026-08-31 15:13:55 | http://www.shipsim.com/ |
| 5732997 | forum.shipsim.com | 200 | 2026-08-31 15:13:54 | http://forum.shipsim.com/ |
| 5732996 | shipsim.com | 200 | 2026-08-31 15:13:54 | http://shipsim.com/ |
| 5732987 | ojousan.com | 404 | 2026-08-31 15:13:42 | http://ojousan.com/ |
| 5732985 | utsukushii-mura.jp | 200 | 2026-08-31 15:13:41 | http://utsukushii-mura.jp/ |
| 5732979 | productoslea.com | 200 | 2026-08-31 15:12:45 | https://productoslea.com/ |
| 5732968 | www.campingraadet.dk | 200 | 2026-08-31 15:12:23 | https://www.campingraadet.dk/ |
| 5732955 | lunaotic.tumblr.com | 200 | 2026-08-31 15:10:01 | https://lunaotic.tumblr.com/ |
| 5732953 | safarikalamari.tumblr.com | 200 | 2026-08-31 15:09:59 | http://safarikalamari.tumblr.com/ |
| 5732938 | d7rpx2oz8wbpt.cloudfront.net | 403 | 2026-08-31 15:08:27 | https://d7rpx2oz8wbpt.cloudfront.net/ |
| 5732932 | www.macbras.com.br | 200 | 2026-08-31 15:08:21 | https://www.macbras.com.br/ |
| 5732931 | www.bluesoftweb.com | 200 | 2026-08-31 15:06:58 | https://www.bluesoftweb.com/ |
| 5732929 | www.servicedvillas.com | 200 | 2026-08-31 15:06:57 | https://www.servicedvillas.com/ |
| 5732927 | www.keralpatel.com | 200 | 2026-08-31 15:06:55 | https://www.keralpatel.com/ |
| 5732926 | www.tempodesign.dk | 200 | 2026-08-31 15:06:47 | http://www.tempodesign.dk/ |
| 5732925 | www.delarue.com | 200 | 2026-08-31 15:06:42 | https://www.delarue.com/ |